Weather History for Sheridan, WY

Change the Weather History Date:

Thursday, January 10, 2013

  Actual Average Record
Temperature  
Mean Temperature 33 °F 24 °F  
Max Temperature 46 °F 36 °F 60 °F (1953)
Min Temperature 19 °F 11 °F -21 °F (1949)
Degree Days  
Heating Degree Days 32 41  
Month to date heating degree days 399 419  
Since 1 July heating degree days 3354 3602  
Cooling Degree Days 0 0  
Month to date cooling degree days 0 0  
Year to date cooling degree days 0 0  
Moisture  
Dew Point 22 °F    
Average Humidity 67    
Maximum Humidity 100    
Minimum Humidity 34    
Precipitation  
Precipitation 0.00 in 0.02 in 0.38 in (1938)
Month to date precipitation T 0.17  
Year to date precipitation T 0.17  
Sea Level Pressure  
Sea Level Pressure 29.59 in    
Wind  
Wind Speed 9 mph (NW)    
Max Wind Speed 24 mph    
Max Gust Speed 29 mph    
Visibility 9 miles    
Events      
T = Trace of Precipitation, MM = Missing Value Source: NWS Daily Summary

Daily Weather History Graph

Daily Weather History Graph

Search for Another Location

Airport:

Trip Planner

Search our weather history database for the weather conditions in past years. The results will help you decide how hot, cold, wet, or windy it might be!

Date:

Astronomy

Jan. 10, 2013 Rise Set
Actual Time 7:43 AM MST 4:47 PM MST
Civil Twilight 7:10 AM MST 5:20 PM MST
Nautical Twilight 6:34 AM MST 5:57 PM MST
Astronomical Twilight 5:59 AM MST 6:32 PM MST
Moon 6:26 AM MST (1/10) 3:59 PM MST (1/10)
Length of Visible Light 10h 09m
Length of Day
9h 03m
Waning Crescent, 2% of the Moon is Illuminated
Jan 10
Waning Crescent
Jan 11
New
Jan 18
First Quarter
Jan 26
Full
Feb 3
Last Quarter

Hourly Weather History & Observations

Time (MST) Temp. Windchill Dew Point Humidity Pressure Visibility Wind Dir Wind Speed Gust Speed Precip Events Conditions
12:53 AM 28.9 °F 20.4 °F 23.0 °F 78% 29.73 in 10.0 mi SSW 9.2 mph - N/A   Clear
1:53 AM 36.0 °F - 19.0 °F 50% 29.70 in 10.0 mi Calm Calm - N/A   Clear
2:53 AM 30.9 °F - 19.0 °F 61% 29.67 in 10.0 mi Calm Calm - N/A   Clear
3:53 AM 28.9 °F 23.9 °F 19.9 °F 69% 29.64 in 10.0 mi NNE 4.6 mph - N/A   Clear
4:53 AM 26.1 °F 21.9 °F 19.9 °F 78% 29.62 in 10.0 mi WNW 3.5 mph - N/A   Clear
5:53 AM 25.0 °F 20.7 °F 19.9 °F 81% 29.61 in 10.0 mi Variable 3.5 mph - N/A   Clear
6:53 AM 30.0 °F 20.0 °F 21.0 °F 69% 29.57 in 10.0 mi NW 12.7 mph 19.6 mph N/A   Clear
7:53 AM 28.0 °F 20.8 °F 21.0 °F 75% 29.55 in 10.0 mi NW 6.9 mph - N/A   Clear
8:53 AM 26.1 °F - 21.0 °F 81% 29.56 in 10.0 mi Calm Calm - N/A   Clear
9:53 AM 32.0 °F 25.6 °F 21.9 °F 66% 29.55 in 10.0 mi WSW 6.9 mph - N/A   Clear
10:53 AM 34.0 °F 26.0 °F 21.9 °F 61% 29.55 in 10.0 mi North 10.4 mph 17.3 mph N/A   Clear
11:53 AM 41.0 °F 33.1 °F 21.9 °F 47% 29.57 in 10.0 mi WNW 15.0 mph - N/A   Clear
12:53 PM 46.0 °F - 19.9 °F 35% 29.53 in 10.0 mi Calm Calm - N/A   Clear
1:53 PM 45.0 °F 41.8 °F 23.0 °F 42% 29.50 in 10.0 mi NNW 5.8 mph - N/A   Clear
2:53 PM 44.1 °F 40.8 °F 26.1 °F 49% 29.52 in 10.0 mi NW 5.8 mph - N/A   Clear
3:53 PM 41.0 °F 35.8 °F 25.0 °F 53% 29.53 in 10.0 mi WNW 8.1 mph - N/A   Clear
4:53 PM 36.0 °F 26.7 °F 24.1 °F 62% 29.56 in 10.0 mi WNW 15.0 mph - N/A   Clear
5:53 PM 28.9 °F 16.1 °F 26.1 °F 89% 29.60 in 10.0 mi WNW 19.6 mph - N/A   Clear
6:01 PM 28.4 °F 15.4 °F 26.6 °F 93% 29.50 in 10.0 mi NW 19.6 mph - N/A   Scattered Clouds
6:13 PM 28.4 °F 15.4 °F 26.6 °F 93% 29.51 in 10.0 mi NW 19.6 mph 25.3 mph N/A   Mostly Cloudy
6:21 PM 28.4 °F 15.4 °F 26.6 °F 93% 29.51 in 10.0 mi WNW 19.6 mph - N/A   Overcast
6:53 PM 28.0 °F 16.1 °F 26.1 °F 92% 29.61 in 10.0 mi NW 16.1 mph - N/A   Overcast
7:38 PM 26.6 °F 15.7 °F 24.8 °F 93% 29.52 in 1.8 mi WNW 12.7 mph - N/A   Overcast
7:53 PM 26.1 °F 16.2 °F 25.0 °F 96% 29.63 in 2.0 mi NW 10.4 mph - N/A   Overcast
8:30 PM 26.6 °F 15.7 °F 24.8 °F 93% 29.53 in 1.8 mi NW 12.7 mph - N/A   Overcast
8:50 PM 24.8 °F 10.7 °F 24.8 °F 100% 29.53 in 2.5 mi WNW 19.6 mph - N/A   Overcast
8:53 PM 25.0 °F 12.2 °F 24.1 °F 96% 29.65 in 3.0 mi WNW 16.1 mph - N/A   Overcast
9:24 PM 24.8 °F 11.5 °F 23.0 °F 93% 29.55 in 6.0 mi NW 17.3 mph - N/A   Overcast
9:49 PM 24.8 °F 13.4 °F 21.2 °F 86% 29.55 in 10.0 mi NW 12.7 mph - N/A   Overcast
9:53 PM 24.1 °F 10.6 °F 21.9 °F 91% 29.66 in 9.0 mi NW 17.3 mph - N/A   Overcast
10:53 PM 21.0 °F 5.7 °F 19.0 °F 92% 29.68 in 6.0 mi NNW 19.6 mph 25.3 mph N/A   Overcast
11:53 PM 19.0 °F 2.7 °F 16.0 °F 88% 29.69 in 10.0 mi NNW 20.7 mph 26.5 mph N/A   Overcast